New Roads False River Regiona, LA

3:49 PM CDT on October 19, 2019 (GMT -0500)
False River

Weather History for KHZR - August, 2019

Change the Weather History Date:

Monday, August 26, 2019

  Actual Average (WUND) Record (WUND)
Temperature  
Mean Temperature 81 °F -  
Max Temperature 87 °F - - (-1)
Min Temperature 75 °F - - (-1)
Cooling Degree Days 16    
Growing Degree Days 31 (Base 50)    
Moisture  
Dew Point 76 °F    
Average Humidity 87    
Maximum Humidity 100    
Minimum Humidity 66    
Precipitation  
Precipitation 0.19 in - - ()
Sea Level Pressure  
Sea Level Pressure 29.87 in    
Wind  
Wind Speed 5 mph ()    
Max Wind Speed 12 mph    
Max Gust Speed 16 mph    
Visibility 9.7 miles    
Events Rain , Thunderstorm    
Averages and records for this station are not official NWS values.
T = Trace of Precipitation, MM = Missing Value Source: Averaged Metar Reports

Daily Weather History Graph

Daily Weather History Graph

Search for Another Location

Airport or City:

Astronomy

Aug. 26, 2019 Rise Set
Actual Time 6:38 AM CDT 7:36 PM CDT
Civil Twilight 6:13 AM CDT 8:01 PM CDT
Nautical Twilight 5:44 AM CDT 8:30 PM CDT
Astronomical Twilight 5:14 AM CDT 9:00 PM CDT
Moon 2:18 AM CDT (8/26) 4:45 PM CDT (8/26)
Length of Visible Light 13h 47m
Length of Day
12h 57m
Waning Crescent, 19% of the Moon is Illuminated
Aug 26
Waning Crescent
Aug 30
New
Sep 5
First Quarter
Sep 13
Full
Sep 21
Last Quarter

Hourly Weather History & Observations

Time (CDT) Temp. Heat Index Dew Point Humidity Pressure Visibility Wind Dir Wind Speed Gust Speed Precip Events Conditions
12:36 AM 75.2 °F - 75.2 °F 100% 29.88 in 10.0 mi South 4.6 mph - N/A   Overcast
12:56 AM 75.2 °F - 75.2 °F 100% 29.88 in 7.0 mi South 5.8 mph - N/A Rain Light Rain
1:16 AM 75.2 °F - 75.2 °F 100% 29.87 in 10.0 mi South 4.6 mph - N/A   Overcast
1:59 AM 75.2 °F - 75.2 °F 100% 29.86 in 7.0 mi South 5.8 mph - N/A   Overcast
2:36 AM 75.2 °F - 75.2 °F 100% 29.86 in 4.0 mi SW 3.5 mph - 0.15 in Rain Light Rain
2:56 AM 75.2 °F - 75.2 °F 100% 29.85 in 10.0 mi SSW 9.2 mph - 0.17 in Rain Light Rain
3:16 AM 75.2 °F - 75.2 °F 100% 29.85 in 7.0 mi SSW 6.9 mph - N/A   Overcast
3:39 AM 77.0 °F - 77.0 °F 100% 29.85 in 10.0 mi SSW 6.9 mph - N/A   Overcast
4:16 AM 77.0 °F - 77.0 °F 100% 29.86 in 10.0 mi South 6.9 mph - N/A   Overcast
4:36 AM 77.0 °F - 77.0 °F 100% 29.86 in 10.0 mi SSW 4.6 mph - N/A   Overcast
5:18 AM 77.0 °F - 77.0 °F 100% 29.86 in 10.0 mi SSW 5.8 mph - N/A   Overcast
5:36 AM 77.0 °F - 77.0 °F 100% 29.86 in 10.0 mi SSW 4.6 mph - N/A   Overcast
5:56 AM 77.0 °F - 75.2 °F 94% 29.87 in 10.0 mi South 4.6 mph - N/A   Overcast
6:36 AM 75.2 °F - 75.2 °F 100% 29.87 in 10.0 mi Calm Calm - N/A   Mostly Cloudy
6:56 AM 75.2 °F - 75.2 °F 100% 29.87 in 10.0 mi South 3.5 mph - N/A   Mostly Cloudy
7:16 AM 75.2 °F - 75.2 °F 100% 29.88 in 10.0 mi South 4.6 mph - N/A   Mostly Cloudy
7:37 AM 77.0 °F - 75.2 °F 94% 29.88 in 10.0 mi SSW 3.5 mph - N/A   Mostly Cloudy
7:56 AM 77.0 °F - 77.0 °F 100% 29.88 in 10.0 mi SSW 3.5 mph - N/A   Mostly Cloudy
8:16 AM 78.8 °F - 75.2 °F 89% 29.88 in 10.0 mi SW 3.5 mph - N/A   Mostly Cloudy
9:00 AM 80.6 °F 87.1 °F 77.0 °F 89% 29.89 in 10.0 mi SSW 5.8 mph - N/A   Mostly Cloudy
9:36 AM 82.4 °F 90.9 °F 77.0 °F 84% 29.88 in 10.0 mi SW 8.1 mph - N/A Thunderstorm Scattered Clouds
10:56 AM 84.2 °F 94.1 °F 77.0 °F 79% 29.89 in 10.0 mi SW 6.9 mph - N/A   Mostly Cloudy
11:18 AM 86.0 °F 96.9 °F 77.0 °F 74% 29.89 in 7.0 mi SSW 5.8 mph - 0.02 in Rain Rain
11:36 AM 82.4 °F 92.4 °F 78.8 °F 89% 29.88 in 10.0 mi SSW 4.6 mph - 0.02 in   Mostly Cloudy
12:16 PM 86.0 °F 95.1 °F 75.2 °F 70% 29.87 in 10.0 mi WSW 4.6 mph - N/A   Mostly Cloudy
12:36 PM 87.8 °F 97.6 °F 75.2 °F 66% 29.88 in 10.0 mi SW 11.5 mph 16.1 mph N/A   Mostly Cloudy
12:56 PM 87.8 °F 97.6 °F 75.2 °F 66% 29.88 in 10.0 mi SW 8.1 mph - N/A   Mostly Cloudy
1:16 PM 84.2 °F 94.1 °F 77.0 °F 79% 29.88 in 10.0 mi SSE 10.4 mph - N/A Thunderstorm Mostly Cloudy
1:36 PM 87.8 °F 102.5 °F 78.8 °F 75% 29.87 in 10.0 mi South 9.2 mph - N/A Thunderstorm Mostly Cloudy
1:58 PM 87.8 °F 99.7 °F 77.0 °F 70% 29.87 in 10.0 mi South 8.1 mph - N/A   Scattered Clouds
2:16 PM 86.0 °F 99.3 °F 78.8 °F 79% 29.86 in 10.0 mi South 9.2 mph - N/A   Scattered Clouds
2:36 PM 84.2 °F 96.1 °F 78.8 °F 84% 29.85 in 10.0 mi South 11.5 mph - N/A   Scattered Clouds
2:58 PM 84.2 °F 92.3 °F 75.2 °F 74% 29.86 in 10.0 mi SSW 10.4 mph 16.1 mph N/A   Scattered Clouds
3:16 PM 84.2 °F 92.3 °F 75.2 °F 74% 29.85 in 10.0 mi West 3.5 mph - N/A   Mostly Cloudy
3:36 PM 84.2 °F 94.1 °F 77.0 °F 79% 29.85 in 10.0 mi SSW 3.5 mph - N/A   Mostly Cloudy
3:56 PM 86.0 °F 99.3 °F 78.8 °F 79% 29.84 in 10.0 mi South 3.5 mph - N/A Thunderstorm Mostly Cloudy
4:16 PM 86.0 °F 96.9 °F 77.0 °F 74% 29.85 in - SW 6.9 mph - N/A   Scattered Clouds
4:56 PM 84.2 °F 90.9 °F 73.4 °F 70% 29.84 in 10.0 mi Calm Calm - N/A   Clear
5:17 PM 84.2 °F 92.3 °F 75.2 °F 74% 29.84 in 10.0 mi North 3.5 mph - N/A   Scattered Clouds
5:36 PM 84.2 °F 92.3 °F 75.2 °F 74% 29.84 in 10.0 mi Calm Calm - N/A Thunderstorm Clear
5:56 PM 84.2 °F 94.1 °F 77.0 °F 79% 29.86 in 10.0 mi Calm Calm - N/A Thunderstorm Scattered Clouds
6:16 PM 82.4 °F 89.5 °F 75.2 °F 79% 29.86 in 10.0 mi Calm Calm - N/A   Scattered Clouds
6:36 PM 80.6 °F 85.4 °F 73.4 °F 79% 29.86 in 10.0 mi SSE 6.9 mph - N/A Rain , Thunderstorm Light Thunderstorms and Rain
6:58 PM 80.6 °F 85.4 °F 73.4 °F 79% 29.87 in 10.0 mi ESE 5.8 mph - N/A Thunderstorm Scattered Clouds
7:19 PM 80.6 °F 85.4 °F 73.4 °F 79% 29.86 in 10.0 mi Calm Calm - N/A   Clear
7:36 PM 80.6 °F 85.4 °F 73.4 °F 79% 29.87 in 10.0 mi SSE 8.1 mph - N/A   Clear
7:56 PM 78.8 °F - 73.4 °F 83% 29.87 in 10.0 mi South 4.6 mph - N/A   Clear
8:16 PM 78.8 °F - 73.4 °F 83% 29.88 in 10.0 mi SE 5.8 mph - N/A   Clear
8:36 PM 78.8 °F - 73.4 °F 83% 29.88 in 10.0 mi SE 5.8 mph - N/A   Clear
8:57 PM 77.0 °F - 73.4 °F 89% 29.89 in 10.0 mi ESE 4.6 mph - N/A   Clear
9:16 PM 77.0 °F - 73.4 °F 89% 29.90 in 10.0 mi Calm Calm - N/A   Scattered Clouds
9:37 PM 77.0 °F - 73.4 °F 89% 29.90 in 10.0 mi SE 3.5 mph - N/A   Scattered Clouds
9:56 PM 77.0 °F - 73.4 °F 89% 29.90 in 10.0 mi SSE 4.6 mph - N/A   Clear
10:16 PM 77.0 °F - 75.2 °F 94% 29.91 in 10.0 mi ESE 4.6 mph - N/A   Clear
10:40 PM 77.0 °F - 75.2 °F 94% 29.91 in 10.0 mi SSE 4.6 mph - N/A   Scattered Clouds
10:56 PM 77.0 °F - 75.2 °F 94% 29.91 in 10.0 mi SE 3.5 mph - N/A   Scattered Clouds
11:16 PM 78.8 °F - 77.0 °F 94% 29.89 in 10.0 mi South 4.6 mph - N/A   Clear
11:36 PM 78.8 °F - 78.8 °F 100% 29.89 in 10.0 mi South 5.8 mph - N/A   Clear
11:58 PM 78.8 °F - 78.8 °F 100% 29.89 in 10.0 mi South 5.8 mph - N/A   Clear